Tonopah, NV

9:12 AM PDT on April 25, 2017 (GMT -0700)
Tonopah

Weather History for KTPH - May, 2013

Change the Weather History Date:

Thursday, May 9, 2013

  Actual Average Record
Temperature  
Mean Temperature 58 °F 57 °F  
Max Temperature 71 °F 72 °F 87 °F (1960)
Min Temperature 44 °F 41 °F 24 °F (2003)
Degree Days  
Heating Degree Days 7 9  
Month to date heating degree days 93 89  
Since 1 July heating degree days 4834 5282  
Cooling Degree Days 0 0  
Month to date cooling degree days 0 0  
Year to date cooling degree days 1 1  
Growing Degree Days 6 (Base 50)    
Moisture  
Dew Point 36 °F    
Average Humidity 48    
Maximum Humidity 71    
Minimum Humidity 24    
Precipitation  
Precipitation T in 0.01 in 0.43 in (1998)
Month to date precipitation 0.20 0.13  
Year to date precipitation 0.96 2.13  
Sea Level Pressure  
Sea Level Pressure 30.04 in    
Wind  
Wind Speed 7 mph (NNE)    
Max Wind Speed 31 mph    
Max Gust Speed 37 mph    
Visibility 10 miles    
Events Rain , Thunderstorm    
T = Trace of Precipitation, MM = Missing Value Source: NWS Daily Summary

Daily Weather History Graph

Daily Weather History Graph

Search for Another Location

Airport or City:

Trip Planner

Search our weather history database for the weather conditions in past years. The results will help you decide how hot, cold, wet, or windy it might be!

Date:

Astronomy

May. 09, 2013 Rise Set
Actual Time 5:43 AM PDT 7:47 PM PDT
Civil Twilight 5:14 AM PDT 8:16 PM PDT
Nautical Twilight 4:38 AM PDT 8:51 PM PDT
Astronomical Twilight 4:00 AM PDT 9:30 PM PDT
Moon 5:30 AM PDT (5/9) 7:46 PM PDT (5/9)
Length of Visible Light 15h 02m
Length of Day
14h 03m
Waning Crescent, 0% of the Moon is Illuminated
May 9
Waning Crescent
May 9
New
May 17
First Quarter
May 24
Full
May 31
Last Quarter

Hourly Weather History & Observations

Time (PDT) Temp. Windchill Dew Point Humidity Pressure Visibility Wind Dir Wind Speed Gust Speed Precip Events Conditions
12:56 AM 48.0 °F - 37.9 °F 68% 30.03 in 10.0 mi NNE 4.6 mph - N/A   Mostly Cloudy
1:56 AM 46.9 °F - 37.0 °F 68% 30.02 in 10.0 mi North 6.9 mph - N/A   Clear
3:56 AM 46.0 °F 40.6 °F 36.0 °F 68% 30.01 in 10.0 mi NNE 11.5 mph - N/A   Clear
4:56 AM 45.0 °F 38.9 °F 35.1 °F 68% 30.01 in 10.0 mi North 12.7 mph - N/A   Clear
5:56 AM 44.1 °F 40.1 °F 35.1 °F 71% 30.02 in 10.0 mi North 6.9 mph - N/A   Clear
6:56 AM 46.9 °F - 35.1 °F 63% 30.03 in 10.0 mi Calm Calm - N/A   Clear
7:56 AM 57.0 °F - 37.0 °F 47% 30.01 in 10.0 mi North 10.4 mph - N/A   Clear
8:56 AM 62.1 °F - 34.0 °F 35% 30.00 in 10.0 mi NNE 12.7 mph - N/A   Clear
9:56 AM 62.1 °F - 33.1 °F 34% 30.01 in 10.0 mi North 8.1 mph 17.3 mph N/A   Mostly Cloudy
10:56 AM 62.1 °F - 35.1 °F 37% 30.01 in 10.0 mi Variable 4.6 mph - N/A   Overcast
11:56 AM 61.0 °F - 35.1 °F 38% 30.03 in 10.0 mi Calm Calm - 0.00 in Rain Light Rain
12:56 PM 64.0 °F - 33.1 °F 31% 30.01 in 10.0 mi Calm Calm - 0.00 in   Overcast
1:56 PM 68.0 °F - 33.1 °F 27% 29.98 in 10.0 mi Calm Calm - N/A   Mostly Cloudy
2:56 PM 68.0 °F - 30.9 °F 25% 29.97 in 10.0 mi Calm Calm - N/A   Overcast
3:27 PM 68.0 °F - 32.0 °F 26% 30.10 in 10.0 mi East 13.8 mph 20.7 mph N/A   Mostly Cloudy
3:56 PM 68.0 °F - 30.0 °F 24% 29.97 in 10.0 mi ESE 12.7 mph - N/A   Mostly Cloudy
4:56 PM 64.0 °F - 34.0 °F 33% 30.02 in 10.0 mi ENE 26.5 mph 35.7 mph N/A   Mostly Cloudy
5:03 PM 60.8 °F - 35.6 °F 39% 30.14 in 10.0 mi NE 26.5 mph 36.8 mph N/A   Overcast
5:13 PM 60.8 °F - 35.6 °F 39% 30.14 in 10.0 mi NE 27.6 mph 35.7 mph N/A Thunderstorm Overcast
5:46 PM 57.2 °F - 41.0 °F 55% 30.15 in 10.0 mi North 17.3 mph 36.8 mph 0.00 in Rain Light Rain
5:56 PM 57.9 °F - 41.0 °F 53% 30.06 in 10.0 mi NE 6.9 mph - 0.00 in Rain Light Rain
6:56 PM 57.9 °F - 42.1 °F 56% 30.05 in 10.0 mi NNW 4.6 mph - 0.00 in   Scattered Clouds
7:56 PM 55.0 °F - 39.9 °F 57% 30.04 in 10.0 mi WNW 9.2 mph - N/A   Partly Cloudy
8:56 PM 53.1 °F - 39.0 °F 59% 30.06 in 10.0 mi WSW 6.9 mph - N/A   Mostly Cloudy
9:56 PM 54.0 °F - 39.9 °F 59% 30.08 in 10.0 mi NNW 9.2 mph - N/A   Scattered Clouds
10:56 PM 53.1 °F - 39.0 °F 59% 30.08 in 10.0 mi North 4.6 mph - N/A   Partly Cloudy
11:56 PM 50.0 °F - 39.9 °F 68% 30.11 in 10.0 mi NNW 4.6 mph - N/A   Clear